COSMOS 2428

Last updated on Mon Sep 21 2026 00:02:09 GMT+0000 (Coordinated Universal Time)

1 31792U 07029A 26263.15027556 -.00000016 00000+0 17300-4 0 9992 2 31792 70.9439 155.1169 0011164 322.7030 37.3315 14.12977218991568
UTC large
Height (km)
Speed (km/s)
/
Latitude / Longitude
Inclination (degrees)
Orbital Period (minutes)
Azimuth
Elevation
Range (km)
Doppler Factor

Next 0 passes for location: London (51.5072 / 0.1276)

No passes found over London.
COSMOS 2428